Location: Unspecified
(44.4377°N, 88.0525°W)
Time: 23:37:56
(UTC-05:00)

Cosmos 1674 - Visible Passes

Search period start: 28 July 2014 00:00
Search period end: 07 August 2014 00:00
Orbit: 516 x 543 km, 82.5° (Epoch: 28 July)

Date Brightness Start Highest point End Pass type
(mag) Time Alt. Az. Time Alt. Az. Time Alt. Az.
28 Jul 5.8 03:23:41 10° NE 03:25:35 13° ENE 03:27:28 10° E visible
28 Jul 3.0 04:58:10 10° NNW 05:01:54 48° W 05:05:35 10° SSW visible
29 Jul 5.8 03:13:15 10° NE 03:14:52 12° ENE 03:16:29 10° E visible
29 Jul 2.9 04:47:28 10° NNW 04:51:14 52° W 04:54:57 10° S visible
30 Jul 5.8 03:02:52 10° NE 03:04:09 11° ENE 03:05:26 10° E visible
30 Jul 2.8 04:36:46 10° NNW 04:40:34 57° W 04:44:18 10° S visible
31 Jul 5.9 02:52:36 10° NE 02:53:26 11° ENE 02:54:15 10° E visible
31 Jul 2.7 04:26:04 10° NNW 04:29:53 62° W 04:33:39 10° S visible
01 Aug 2.6 04:15:22 10° NNW 04:19:12 67° W 04:22:59 10° S visible
02 Aug 2.6 04:04:40 10° NNW 04:08:31 73° W 04:11:51 13° S visible
03 Aug 2.6 03:53:57 10° N 03:57:49 79° W 04:00:28 19° S visible
04 Aug 2.6 03:43:15 10° N 03:47:07 86° W 03:49:09 27° S visible
05 Aug 2.6 03:32:33 10° N 03:36:25 87° E 03:37:53 36° S visible
06 Aug 2.7 03:21:51 10° N 03:25:43 81° E 03:26:41 48° SSE visible
